This is the latest recevied weather packets stored in our database for station/object KD0SBN-3. If no packets are shown the sender has not sent any weather packets the latest 10 day(s).
| Time | Temp. | Humidity | Pressure | Rain* | Wind** | Luminosity | Snow |
|---|---|---|---|---|---|---|---|
| 1777998087 | 7.22° C | 65% | 1019.9 hPa | 0 mm | - | 261 W/m² | - |
| 1777997784 | 7.22° C | 64% | 1020.2 hPa | 0 mm | - | 275 W/m² | - |
| 1777997481 | 7.22° C | 65% | 1019.8 hPa | 0 mm | - | 417 W/m² | - |
| 1777997179 | 6.67° C | 68% | 1019.8 hPa | 0 mm | - | 448 W/m² | - |
| 1777996876 | 5.56° C | 70% | 1019.8 hPa | 0 mm | - | 344 W/m² | - |
| 1777996571 | 6.67° C | 68% | 1019.8 hPa | 0 mm | - | 303 W/m² | - |
| 1777996268 | 7.22° C | 65% | 1019.8 hPa | 0 mm | - | 288 W/m² | - |
| 1777995964 | 7.22° C | 63% | 1019.6 hPa | 0 mm | - | 278 W/m² | - |
| 1777995660 | 7.22° C | 65% | 1019.8 hPa | 0 mm | - | 275 W/m² | - |
| 1777995358 | 6.67° C | 67% | 1019.6 hPa | 0 mm | - | 343 W/m² | - |
| 1777995055 | 6.11° C | 67% | 1019.9 hPa | 0 mm | - | 270 W/m² | - |
| 1777994752 | 6.11° C | 67% | 1019.4 hPa | 0 mm | - | 269 W/m² | - |
| 1777994447 | 5.56° C | 68% | 1019.9 hPa | 0 mm | - | 261 W/m² | - |
| 1777994142 | 6.11° C | 68% | 1019.5 hPa | 0 mm | - | 299 W/m² | - |
| 1777993840 | 5° C | 73% | 1019.8 hPa | 0 mm | - | 290 W/m² | - |
| 1777993536 | 5.56° C | 72% | 1019.8 hPa | 0 mm | - | 295 W/m² | - |
| 1777993233 | 5° C | 72% | 1019.8 hPa | 0 mm | - | 248 W/m² | - |
| 1777992929 | 5° C | 72% | 1019.9 hPa | 0 mm | - | 289 W/m² | - |
| 1777992627 | 4.44° C | 75% | 1019.8 hPa | 0 mm | - | 277 W/m² | - |
| 1777992325 | 3.89° C | 76% | 1019.9 hPa | 0 mm | - | 248 W/m² | - |
| 1777992022 | 3.89° C | 77% | 1020.2 hPa | 0 mm | - | 231 W/m² | - |
| 1777991719 | 4.44° C | 75% | 1020.3 hPa | 0 mm | - | 191 W/m² | - |
| 1777991416 | 4.44° C | 76% | 1020.4 hPa | 0 mm | - | 257 W/m² | - |
| 1777991114 | 3.89° C | 78% | 1020.4 hPa | 0 mm | - | 273 W/m² | - |
| 1777990811 | 3.89° C | 78% | 1020.3 hPa | 0 mm | - | 232 W/m² | - |
* Rain latest hour (hover to see other rain measurements)
** Current wind speed in m/s (hover to see current wind gust speed)